SCP
0 0 0 0 0 0 0 0 0 0 0 0 0 0 0 0 0 0 0 0 0 0 0 0 0 0 0 0 0 0 0 0 0 0 0 0 0 0 0 0 0 0 0
0 0 0 0 0 0 0 0 0 0 0 0 0 0 0 0 0 0 0 0 0 0 0 0 0 0 0 0 0 0 0 0 0 0 0 0 0 0 0 0 0 0 0
0 0 0 0 0 0 0 0 0 0 0 0 0 0 0 0 0 0 0 0 0 0 0 0 0 0 0 0 0 0 0 0 0 0 0 0 0 0 0 0 0 0 0
0 0 0 0 0 0 0 0 0 0 0 0 0 0 0 0 0 0 0 0 0 0 0 0 0 0 0 0 0 0 0 0 0 0 0 0 0 0 0 0 0 0 0
0 0 0 0 0 0 0 0 0 0 0 0 0 0 0 0 0 0 0 0 0 0 0 0 0 0 0 0 0 0 0 0 0 0 0 0 0 0 0 0 0 0 0
0 0 0 0 0 0 0 0 0 0 0 0 0 0 0 0 0 0 0 0 0 0 0 0 0 0 0 0 0 0 0 0 0 0 0 0 0 0 0 0 0 0 0
0 0 0 0 0 0 0 0 0 0 0 0 0 0 0 0 0 0 0 0 0 0 0 0 0 0 0 0 0 0 0 0 0 0 0 0 0 0 0 0 0 0 0
0 0 0 0 0 0 0 0 0 0 0 0 0 0 0 0 0 0 0 0 0 0 0 0 0 0 0 0 0 0 0 0 0 0 0 0 0 0 0 0 0 0 0
0 0 0 0 0 0 0 0 0 0 0 0 0 0 0 0 0 0 0 0 0 0 0 0 0 0 0 0 0 0 0 0 0 0 0 0 0 0 0 0 0 0 0
0 0 0 0 0 0 0 0 0 0 0 0 0 0 0 0 0 0 0 0 0 0 0 0 0 0 0 0 0 0 0 0 0 0 0 0 0 0 0 0 0 0 0
0 0 0 0 0 0 0 0 0 0 0 0 0 0 0 0 0 0 0 0 0 0 0 0 0 0 0 0 0 0 0 0 0 0 0 0 0 0 0 0 0 0 0
0 0 0 0 0 0 0 0 0 0 0 0 0 0 0 0 0 0 0 0 0 0 0 0 0 0 0 0 0 0 0 0 0 0 0 0 0 0 0 0 0 0 0
0 0 0 0 0 0 0 0 0 0 0 0 0 0 0 0 0 0 0 0 0 0 0 0 0 0 0 0 0 0 0 0 0 0 0 0 0 0 0 0 0 0 0
0 0 0 0 0 0 0 0 0 0 0 0 0 0 0 0 0 0 0 0 0 0 0 0 0 0 0 0 0 0 0 0 0 0 0 0 0 0 0 0 0 0 0
0 0 0 0 0 0 0 0 0 0 0 0 0 0 0 0 0 0 0 0 0 0 0 0 0 0 0 0 0 0 0 0 0 0 0 0 0 0 0 0 0 0 0
0 0 0 0 0 0 0 0 0 0 0 0 0 0 0 0 0 0 0 0 0 0 0 0 0 0 0 0 0 0 0 0 0 0 0 0 0 0 0 0 0 0 0
0 0 0 0 0 0 0 0 0 0 0 0 0 0 0 0 0 0 0 0 0 0 0 0 0 0 0 0 0 0 0 0 0 0 0 0 0 0 0 0 0 0 0
0 0 0 0 0 0 0 0 0 0 0 0 0 0 0 0 0 0 0 0 0 0 0 0 0 0 0 0 0 0 0 0 0 0 0 0 0 0 0 0 0 0 0
0 0 0 0 0 0 0 0 0 0 0 0 0 0 0 0 0 0 0 0 0 0 0 0 0 0 0 0 0 0 0 0 0 0 0 0 0 0 0 0 0 0 0
0 0 0 0 0 0 0 0 0 0 0 0 0 0 0 0 0 0 0 0 0 0 0 0 0 0 0 0 0 0 0 0 0 0 0 0 0 0 0 0 0 0 0
0 0 0 0 0 0 0 0 0 0 0 0 0 0 0 0 0 0 0 0 0 0 0 0 0 0 0 0 0 0 0 0 0 0 0 0 0 0 0 0 0 0 0
0 0 0 0 0 0 0 -0 0 0 0 0 0 0 0 0 0 0 0 0 0 0 0 0 0 0 0 0 0 0 0 0 0 0 0 0 0 0 0 -0 -0 0 0
0 0 0 0 0 0 -0 -0 -0 0 0 0 0 0 0 0 0 0 0 0 0 0 0 0 0 0 0 0 0 0 0 0 0 0 0 0 0 0 0 -0 0 -0 0
0 0 0 0 0 0 -0 -0 -0 0 0 0 0 0 0 0 0 0 0 0 0 0 0 0 0 0 0 0 0 0 0 0 0 0 0 0 0 0 0 0 -0 -0 -0
0 0 0 0 0 0 -0 -0 0 0 0 0 0 0 0 0 0 0 0 0 0 0 0 0 0 0 0 0 0 0 0 0 0 0 0 0 0 0 0 -0 0 -0 -0
0 0 0 0 0 0 -0 0 0 0 0 0 0 0 0 0 0 0 0 0 0 0 0 0 0 0 0 0 0 0 0 0 0 0 0 0 0 0 0 0 0 0 -0
Wind_Speed_500mb
41 37 31 26 22 19 19 21 22 22 16 12 9 8 5 16 12 7 19 17 18 16 24 31 36 36 35 32 27 31 33 35 35 36 37 38 34 31 29 29 31 31 34
39 33 29 25 22 20 22 21 20 18 13 11 6 10 16 13 13 12 20 16 15 16 22 28 32 34 30 27 25 32 33 35 37 35 35 36 36 32 34 29 32 32 32
40 33 27 24 23 20 19 17 15 12 12 9 7 15 11 19 18 16 12 20 14 12 18 28 32 26 27 24 22 29 31 37 41 39 37 37 37 37 36 38 34 32 33
40 36 30 25 18 15 14 13 14 12 14 17 14 12 15 18 17 17 16 16 9 11 19 25 22 21 23 22 24 25 28 34 40 42 41 39 38 38 38 37 37 35 34
41 38 36 27 22 17 13 13 15 11 12 13 15 16 13 17 19 17 17 14 10 11 13 14 17 19 22 26 29 31 30 31 41 42 46 44 41 40 40 39 40 38 35
45 38 37 32 21 19 15 15 17 18 17 16 12 11 14 20 17 16 16 13 12 11 10 7 10 15 18 21 27 31 34 33 38 41 47 44 42 43 44 41 45 40 38
47 41 36 32 23 19 18 21 19 18 19 18 15 6 2 7 12 15 15 15 16 16 13 8 9 12 14 17 23 27 31 35 38 41 45 47 46 46 47 45 50 45 37
49 40 35 27 22 22 22 22 18 19 22 19 12 12 10 8 16 17 14 16 17 21 20 16 13 14 14 21 31 32 35 40 40 43 47 47 49 49 48 48 49 43 44
49 42 31 23 25 21 21 19 21 22 22 16 20 16 10 12 19 15 14 16 21 22 20 22 22 20 22 24 30 39 45 49 50 51 51 54 52 52 54 49 48 41 37
53 47 34 27 24 26 26 23 26 24 23 18 19 22 25 14 11 10 16 14 12 12 13 20 25 22 23 27 41 48 46 42 43 49 57 58 60 63 54 45 44 43 40
56 47 35 31 23 29 28 25 25 24 19 15 14 13 10 10 12 13 13 12 3 7 8 11 14 19 28 36 43 42 43 46 50 56 62 67 66 61 52 47 44 41 38
64 49 41 33 25 31 30 22 21 20 13 15 14 11 11 11 12 6 12 17 14 7 8 13 20 27 36 43 45 48 53 60 62 64 64 63 59 57 52 46 43 42 38
60 57 48 36 29 34 27 21 20 19 18 15 12 9 6 4 2 6 5 3 10 16 13 21 28 34 42 50 54 58 60 61 61 59 57 56 55 53 51 47 45 46 45
65 61 51 36 34 32 25 25 27 22 17 14 8 3 2 2 4 6 6 3 7 8 14 18 26 37 49 52 53 52 53 54 54 53 51 53 52 48 44 45 43 41 38
63 56 45 43 35 32 31 34 26 22 16 10 5 4 2 4 6 8 9 11 13 8 16 17 31 40 43 44 47 51 55 57 56 52 47 45 46 42 40 40 34 34 36
66 71 56 43 42 41 41 32 29 21 13 9 7 4 4 5 10 12 13 15 15 16 12 24 33 39 41 44 48 53 58 60 55 49 43 39 43 36 42 49 47 39 36
77 67 55 50 52 45 38 33 27 21 14 14 11 7 4 7 9 10 13 15 18 21 23 26 30 32 35 42 48 55 56 54 51 43 29 34 39 34 42 49 45 42 30
79 63 50 59 50 46 39 33 30 26 19 15 13 6 5 6 8 10 12 16 21 23 24 25 27 30 36 42 50 54 54 51 47 31 27 38 34 36 46 46 40 35 32
86 56 57 62 57 50 43 37 29 25 20 17 10 4 4 6 10 11 12 18 21 25 26 26 26 31 38 49 60 60 62 63 44 30 34 36 38 42 43 36 22 27 33
69 59 70 62 58 52 42 37 28 23 20 14 5 5 6 10 13 13 18 21 25 27 30 28 28 33 42 51 61 73 74 71 57 39 35 47 45 34 27 21 17 26 39
62 60 62 57 56 49 42 36 29 23 17 10 9 8 12 16 17 19 22 27 31 32 31 30 32 37 44 53 62 68 72 78 66 55 54 59 47 31 20 26 32 39 41
66 60 61 57 56 47 41 33 24 19 17 14 14 15 20 22 25 26 31 34 35 33 31 32 33 36 37 43 51 60 70 79 65 60 58 57 50 41 19 35 36 40 45
64 59 64 58 52 48 39 31 23 21 19 20 22 23 24 28 26 27 30 32 31 29 30 31 30 31 34 41 49 58 64 70 72 57 55 49 61 54 20 38 34 41 44
88 79 65 61 55 49 37 28 24 23 25 29 30 28 26 30 29 31 29 24 23 24 27 31 34 31 32 35 43 52 59 70 62 52 58 62 69 62 20 45 38 46 42
86 78 75 67 59 51 31 29 24 25 29 33 33 28 29 30 35 32 26 23 22 21 22 23 24 25 27 32 42 52 60 73 71 51 53 61 65 64 37 52 46 45 38
89 86 74 59 51 54 38 29 22 26 33 37 32 30 30 33 33 29 26 28 27 29 28 26 24 25 30 38 46 50 55 69 65 46 58 61 62 61 41 61 55 50 41
Wind_Direction_500mb
199 195 193 195 196 186 172 166 164 164 164 180 205 201 261 262 239 232 301 286 286 314 332 344 340 348 354 359 8 8 5 4 358 355 354 354 358 1 359 358 359 358 355
202 199 200 197 193 179 168 167 164 168 166 167 209 246 254 225 248 293 294 268 277 314 337 345 350 354 358 4 10 4 3 5 5 359 355 353 356 351 347 351 351 350 348
199 198 198 197 189 184 180 177 179 177 192 220 257 253 230 225 255 283 255 270 290 335 349 348 347 2 8 15 13 360 0 3 5 2 359 355 349 345 341 337 338 341 341
196 193 182 169 173 178 183 193 199 213 228 236 237 215 236 246 267 278 261 251 273 318 330 340 2 10 21 29 27 16 5 360 1 1 356 353 349 344 342 341 337 334 331
189 184 185 182 190 195 189 176 167 206 203 217 223 238 250 269 275 264 241 245 258 303 328 356 14 23 24 19 18 11 4 357 356 353 354 349 345 342 339 338 334 331 335
192 194 196 199 197 198 205 191 209 219 218 217 224 255 257 265 258 241 239 231 254 277 310 349 10 16 15 13 4 359 357 354 351 346 342 345 341 340 337 333 335 335 338
194 201 199 198 203 218 226 220 218 210 212 219 234 271 164 188 217 216 209 230 255 265 276 285 309 336 349 348 340 346 347 344 335 334 330 335 333 336 335 332 331 332 333
194 201 202 199 213 222 215 210 222 221 217 227 236 237 183 197 203 209 223 249 259 271 264 266 285 286 295 309 323 330 330 325 320 323 321 325 326 328 328 326 320 325 327
197 204 201 204 226 222 225 222 230 233 240 245 251 236 206 212 195 214 240 269 282 283 273 252 257 270 282 307 321 323 321 318 314 313 313 315 314 316 317 315 308 312 313
198 207 205 206 223 219 222 233 236 240 261 267 249 237 240 240 201 194 232 277 300 300 257 246 252 258 279 311 324 317 314 309 307 308 309 308 308 309 310 307 303 306 303
197 203 202 195 209 218 220 226 239 252 251 259 223 201 202 214 233 221 195 176 127 143 193 207 246 278 297 315 312 314 312 308 307 305 303 303 306 306 305 301 300 299 299
184 191 196 197 205 219 220 230 243 238 209 187 195 213 243 256 258 246 210 198 203 205 244 268 281 295 305 310 316 316 317 318 319 316 311 308 306 304 304 299 300 299 297
182 188 191 191 203 215 217 222 208 180 172 186 205 224 257 270 77 87 86 165 219 227 259 283 292 305 318 323 325 326 326 326 325 322 315 310 305 304 302 299 297 295 293
184 185 185 192 200 202 196 186 175 176 178 196 198 226 238 81 67 23 27 352 299 266 265 290 305 324 328 329 330 328 326 326 327 325 322 320 318 319 311 308 303 301 302
192 186 186 195 188 185 180 173 175 178 178 175 155 98 17 75 29 9 346 331 328 316 319 312 322 326 331 336 339 337 335 334 335 331 325 325 323 325 318 312 312 309 307
204 186 184 184 179 173 169 173 169 160 166 160 119 81 130 26 11 360 342 344 339 343 340 331 335 339 341 342 341 335 334 331 325 316 317 324 325 323 309 313 315 310 302
197 179 174 176 169 166 165 166 160 151 159 135 119 142 67 19 12 6 349 337 339 344 347 349 341 346 343 342 337 339 342 341 332 327 320 312 324 313 305 308 319 327 315
178 176 173 166 165 169 165 163 156 145 143 132 142 100 28 4 10 6 343 344 354 349 354 357 351 350 352 347 344 347 354 354 339 330 327 324 323 305 301 308 315 324 327
186 172 161 167 165 166 159 154 151 145 140 137 112 72 24 21 19 21 4 9 13 15 16 11 3 355 355 351 350 355 0 2 354 343 344 344 327 320 318 323 339 336 325
162 159 169 163 166 162 157 153 149 142 139 123 125 63 68 60 45 38 36 32 30 23 22 12 4 0 356 354 355 354 358 5 1 352 354 355 355 343 7 6 352 327 322
156 157 168 161 162 158 154 151 143 141 125 118 105 100 84 62 58 52 44 37 31 22 16 9 2 358 354 354 356 351 355 360 8 354 357 360 357 4 8 358 354 347 335
156 160 167 166 161 151 145 142 142 131 123 122 109 97 79 70 55 38 34 28 22 16 8 9 0 350 347 348 348 349 356 2 0 359 352 352 5 8 0 6 352 343 346
159 177 169 166 156 145 146 143 134 128 131 117 107 91 83 73 58 45 34 26 16 8 3 0 353 343 338 343 341 347 352 358 3 355 354 351 7 8 354 354 358 356 351
167 174 165 162 156 144 150 138 135 133 124 114 101 94 86 73 63 50 38 28 19 6 358 351 348 350 344 340 342 345 346 354 356 7 1 356 5 5 32 9 9 7 356
162 163 163 160 155 140 144 141 138 132 124 112 103 98 77 69 59 51 45 39 31 20 7 352 341 339 335 347 355 352 355 355 355 1 0 358 2 360 12 6 9 11 5
160 159 154 154 150 140 142 134 135 132 125 115 108 91 75 63 57 51 46 41 27 22 19 12 3 1 8 13 7 4 355 352 354 355 2 356 2 2 343 355 12 13 11
Wind_Speed_850mb
41 37 31 26 22 19 19 21 22 22 16 12 9 8 5 16 12 7 19 17 18 16 24 31 36 36 35 32 27 31 33 35 35 36 37 38 34 31 29 29 31 31 34
39 33 29 25 22 20 22 21 20 18 13 11 6 10 16 13 13 12 20 16 15 16 22 28 32 34 30 27 25 32 33 35 37 35 35 36 36 32 34 29 32 32 32
40 33 27 24 23 20 19 17 15 12 12 9 7 15 11 19 18 16 12 20 14 12 18 28 32 26 27 24 22 29 31 37 41 39 37 37 37 37 36 38 34 32 33
40 36 30 25 18 15 14 13 14 12 14 17 14 12 15 18 17 17 16 16 9 11 19 25 22 21 23 22 24 25 28 34 40 42 41 39 38 38 38 37 37 35 34
41 38 36 27 22 17 13 13 15 11 12 13 15 16 13 17 19 17 17 14 10 11 13 14 17 19 22 26 29 31 30 31 41 42 46 44 41 40 40 39 40 38 35
45 38 37 32 21 19 15 15 17 18 17 16 12 11 14 20 17 16 16 13 12 11 10 7 10 15 18 21 27 31 34 33 38 41 47 44 42 43 44 41 45 40 38
47 41 36 32 23 19 18 21 19 18 19 18 15 6 2 7 12 15 15 15 16 16 13 8 9 12 14 17 23 27 31 35 38 41 45 47 46 46 47 45 50 45 37
49 40 35 27 22 22 22 22 18 19 22 19 12 12 10 8 16 17 14 16 17 21 20 16 13 14 14 21 31 32 35 40 40 43 47 47 49 49 48 48 49 43 44
49 42 31 23 25 21 21 19 21 22 22 16 20 16 10 12 19 15 14 16 21 22 20 22 22 20 22 24 30 39 45 49 50 51 51 54 52 52 54 49 48 41 37
53 47 34 27 24 26 26 23 26 24 23 18 19 22 25 14 11 10 16 14 12 12 13 20 25 22 23 27 41 48 46 42 43 49 57 58 60 63 54 45 44 43 40
56 47 35 31 23 29 28 25 25 24 19 15 14 13 10 10 12 13 13 12 3 7 8 11 14 19 28 36 43 42 43 46 50 56 62 67 66 61 52 47 44 41 38
64 49 41 33 25 31 30 22 21 20 13 15 14 11 11 11 12 6 12 17 14 7 8 13 20 27 36 43 45 48 53 60 62 64 64 63 59 57 52 46 43 42 38
60 57 48 36 29 34 27 21 20 19 18 15 12 9 6 4 2 6 5 3 10 16 13 21 28 34 42 50 54 58 60 61 61 59 57 56 55 53 51 47 45 46 45
65 61 51 36 34 32 25 25 27 22 17 14 8 3 2 2 4 6 6 3 7 8 14 18 26 37 49 52 53 52 53 54 54 53 51 53 52 48 44 45 43 41 38
63 56 45 43 35 32 31 34 26 22 16 10 5 4 2 4 6 8 9 11 13 8 16 17 31 40 43 44 47 51 55 57 56 52 47 45 46 42 40 40 34 34 36
66 71 56 43 42 41 41 32 29 21 13 9 7 4 4 5 10 12 13 15 15 16 12 24 33 39 41 44 48 53 58 60 55 49 43 39 43 36 42 49 47 39 36
77 67 55 50 52 45 38 33 27 21 14 14 11 7 4 7 9 10 13 15 18 21 23 26 30 32 35 42 48 55 56 54 51 43 29 34 39 34 42 49 45 42 30
79 63 50 59 50 46 39 33 30 26 19 15 13 6 5 6 8 10 12 16 21 23 24 25 27 30 36 42 50 54 54 51 47 31 27 38 34 36 46 46 40 35 32
86 56 57 62 57 50 43 37 29 25 20 17 10 4 4 6 10 11 12 18 21 25 26 26 26 31 38 49 60 60 62 63 44 30 34 36 38 42 43 36 22 27 33
69 59 70 62 58 52 42 37 28 23 20 14 5 5 6 10 13 13 18 21 25 27 30 28 28 33 42 51 61 73 74 71 57 39 35 47 45 34 27 21 17 26 39
62 60 62 57 56 49 42 36 29 23 17 10 9 8 12 16 17 19 22 27 31 32 31 30 32 37 44 53 62 68 72 78 66 55 54 59 47 31 20 26 32 39 41
66 60 61 57 56 47 41 33 24 19 17 14 14 15 20 22 25 26 31 34 35 33 31 32 33 36 37 43 51 60 70 79 65 60 58 57 50 41 19 35 36 40 45
64 59 64 58 52 48 39 31 23 21 19 20 22 23 24 28 26 27 30 32 31 29 30 31 30 31 34 41 49 58 64 70 72 57 55 49 61 54 20 38 34 41 44
88 79 65 61 55 49 37 28 24 23 25 29 30 28 26 30 29 31 29 24 23 24 27 31 34 31 32 35 43 52 59 70 62 52 58 62 69 62 20 45 38 46 42
86 78 75 67 59 51 31 29 24 25 29 33 33 28 29 30 35 32 26 23 22 21 22 23 24 25 27 32 42 52 60 73 71 51 53 61 65 64 37 52 46 45 38
89 86 74 59 51 54 38 29 22 26 33 37 32 30 30 33 33 29 26 28 27 29 28 26 24 25 30 38 46 50 55 69 65 46 58 61 62 61 41 61 55 50 41
Wind_Direction_850mb
199 195 193 195 196 186 172 166 164 164 164 180 205 201 261 262 239 232 301 286 286 314 332 344 340 348 354 359 8 8 5 4 358 355 354 354 358 1 359 358 359 358 355
202 199 200 197 193 179 168 167 164 168 166 167 209 246 254 225 248 293 294 268 277 314 337 345 350 354 358 4 10 4 3 5 5 359 355 353 356 351 347 351 351 350 348
199 198 198 197 189 184 180 177 179 177 192 220 257 253 230 225 255 283 255 270 290 335 349 348 347 2 8 15 13 360 0 3 5 2 359 355 349 345 341 337 338 341 341
196 193 182 169 173 178 183 193 199 213 228 236 237 215 236 246 267 278 261 251 273 318 330 340 2 10 21 29 27 16 5 360 1 1 356 353 349 344 342 341 337 334 331
189 184 185 182 190 195 189 176 167 206 203 217 223 238 250 269 275 264 241 245 258 303 328 356 14 23 24 19 18 11 4 357 356 353 354 349 345 342 339 338 334 331 335
192 194 196 199 197 198 205 191 209 219 218 217 224 255 257 265 258 241 239 231 254 277 310 349 10 16 15 13 4 359 357 354 351 346 342 345 341 340 337 333 335 335 338
194 201 199 198 203 218 226 220 218 210 212 219 234 271 164 188 217 216 209 230 255 265 276 285 309 336 349 348 340 346 347 344 335 334 330 335 333 336 335 332 331 332 333
194 201 202 199 213 222 215 210 222 221 217 227 236 237 183 197 203 209 223 249 259 271 264 266 285 286 295 309 323 330 330 325 320 323 321 325 326 328 328 326 320 325 327
197 204 201 204 226 222 225 222 230 233 240 245 251 236 206 212 195 214 240 269 282 283 273 252 257 270 282 307 321 323 321 318 314 313 313 315 314 316 317 315 308 312 313
198 207 205 206 223 219 222 233 236 240 261 267 249 237 240 240 201 194 232 277 300 300 257 246 252 258 279 311 324 317 314 309 307 308 309 308 308 309 310 307 303 306 303
197 203 202 195 209 218 220 226 239 252 251 259 223 201 202 214 233 221 195 176 127 143 193 207 246 278 297 315 312 314 312 308 307 305 303 303 306 306 305 301 300 299 299
184 191 196 197 205 219 220 230 243 238 209 187 195 213 243 256 258 246 210 198 203 205 244 268 281 295 305 310 316 316 317 318 319 316 311 308 306 304 304 299 300 299 297
182 188 191 191 203 215 217 222 208 180 172 186 205 224 257 270 77 87 86 165 219 227 259 283 292 305 318 323 325 326 326 326 325 322 315 310 305 304 302 299 297 295 293
184 185 185 192 200 202 196 186 175 176 178 196 198 226 238 81 67 23 27 352 299 266 265 290 305 324 328 329 330 328 326 326 327 325 322 320 318 319 311 308 303 301 302
192 186 186 195 188 185 180 173 175 178 178 175 155 98 17 75 29 9 346 331 328 316 319 312 322 326 331 336 339 337 335 334 335 331 325 325 323 325 318 312 312 309 307
204 186 184 184 179 173 169 173 169 160 166 160 119 81 130 26 11 360 342 344 339 343 340 331 335 339 341 342 341 335 334 331 325 316 317 324 325 323 309 313 315 310 302
197 179 174 176 169 166 165 166 160 151 159 135 119 142 67 19 12 6 349 337 339 344 347 349 341 346 343 342 337 339 342 341 332 327 320 312 324 313 305 308 319 327 315
178 176 173 166 165 169 165 163 156 145 143 132 142 100 28 4 10 6 343 344 354 349 354 357 351 350 352 347 344 347 354 354 339 330 327 324 323 305 301 308 315 324 327
186 172 161 167 165 166 159 154 151 145 140 137 112 72 24 21 19 21 4 9 13 15 16 11 3 355 355 351 350 355 0 2 354 343 344 344 327 320 318 323 339 336 325
162 159 169 163 166 162 157 153 149 142 139 123 125 63 68 60 45 38 36 32 30 23 22 12 4 0 356 354 355 354 358 5 1 352 354 355 355 343 7 6 352 327 322
156 157 168 161 162 158 154 151 143 141 125 118 105 100 84 62 58 52 44 37 31 22 16 9 2 358 354 354 356 351 355 360 8 354 357 360 357 4 8 358 354 347 335
156 160 167 166 161 151 145 142 142 131 123 122 109 97 79 70 55 38 34 28 22 16 8 9 0 350 347 348 348 349 356 2 0 359 352 352 5 8 0 6 352 343 346
159 177 169 166 156 145 146 143 134 128 131 117 107 91 83 73 58 45 34 26 16 8 3 0 353 343 338 343 341 347 352 358 3 355 354 351 7 8 354 354 358 356 351
167 174 165 162 156 144 150 138 135 133 124 114 101 94 86 73 63 50 38 28 19 6 358 351 348 350 344 340 342 345 346 354 356 7 1 356 5 5 32 9 9 7 356
162 163 163 160 155 140 144 141 138 132 124 112 103 98 77 69 59 51 45 39 31 20 7 352 341 339 335 347 355 352 355 355 355 1 0 358 2 360 12 6 9 11 5
160 159 154 154 150 140 142 134 135 132 125 115 108 91 75 63 57 51 46 41 27 22 19 12 3 1 8 13 7 4 355 352 354 355 2 356 2 2 343 355 12 13 11